Regional Weather Roundup
Issued by NWS

Home | Current Version | Previous Version | Graphics & Text | Print | Product List | Glossary Off
Versions: 1 2 3 4 5 6 7 8 9 10 11 12 13 14 15 16 17 18 19 20 21 22 23 24 25 26 27 28 29 30 31 32 33 34 35 36 37 38 39 40 41 42 43 44 45 46 47 48 49 50

000
ASUS43 KLSX 161759
RWRMO

WEATHER SUMMARY FOR MISSOURI
NATIONAL WEATHER SERVICE SPRINGFIELD MO
100 PM CDT TUE SEP 16 2014

NOTE: "FAIR" INDICATES FEW OR NO CLOUDS BELOW 12,000 FEET WITH NO
       SIGNIFICANT WEATHER AND/OR OBSTRUCTIONS TO VISIBILITY.
       CURRENT SKY AND/OR WEATHER CONDITIONS ARE NOT AVAILABLE FOR
       CHILLICOTHE AND FARMINGTON.

MOZ001>031-035>038-043-044-053-054-161900-
...NORTHERN AND WESTERN MISSOURI...

CITY           SKY/WX    TMP DP  RH WIND       PRES   REMARKS
KANSAS CTY INT MOSUNNY   64  52  64 VRB5      30.18F
6HR MIN TEMP:  46; 6HR MAX TEMP:  64;

KANSAS C DTWN  SUNNY     67  51  56 NE7       30.17F
6HR MIN TEMP:  49; 6HR MAX TEMP:  67;

LEE`S SUMMIT   SUNNY     66  51  58 CALM      30.18F
6HR MIN TEMP:  47; 6HR MAX TEMP:  66;

ST JOSEPH      SUNNY     64  51  62 E6        30.19F
6HR MIN TEMP:  40; 6HR MAX TEMP:  64;

KIRKSVILLE     SUNNY     63  47  55 CALM      30.21F
6HR MIN TEMP:  40; 6HR MAX TEMP:  63;


$$
MOZ066>068-077>081-088>096-101>105-161900-
...SOUTHWEST MISSOURI...

CITY           SKY/WX    TMP DP  RH WIND       PRES   REMARKS
SPRINGFIELD    CLOUDY    69  57  65 E5        30.16F
6HR MIN TEMP:  63; 6HR MAX TEMP:  69;

JOPLIN         CLOUDY    67  61  81 VRB7      30.16F
6HR MIN TEMP:  59; 6HR MAX TEMP:  67; 6HR PCP: TRACE;


$$
MOZ032>034-039>042-045>050-055>058-069>072-161900-
...CENTRAL MISSOURI...

CITY           SKY/WX    TMP DP  RH WIND       PRES   REMARKS
COLUMBIA       SUNNY     67  54  63 N7        30.19F
6HR MIN TEMP:  54; 6HR MAX TEMP:  67;

JEFFERSON CITY PTSUNNY   65  53  65 E5        30.18F
6HR MIN TEMP:  56; 6HR MAX TEMP:  68;

ROLLA          CLOUDY    61  55  81 CALM      30.18F
6HR MIN TEMP:  55; 6HR MAX TEMP:  61;

SEDALIA        CLOUDY    64  54  69 CALM      30.19F
6HR MIN TEMP:  57; 6HR MAX TEMP:  66;

OSAGE BEACH    CLOUDY    64  55  72 SE3       30.19F

$$
MOZ051-052-059>065-161900-
...EAST CENTRAL MISSOURI...

CITY           SKY/WX    TMP DP  RH WIND       PRES   REMARKS
ST LOUIS INTL  CLOUDY    63  53  70 CALM      30.20F
6HR MIN TEMP:  58; 6HR MAX TEMP:  63; 6HR PCP: TRACE;

SPIRIT OF STL  PTSUNNY   64  53  67 N5        30.19F
6HR MIN TEMP:  57; 6HR MAX TEMP:  64;

ST CHARLES     CLOUDY    60  54  80 E5        30.20F
6HR MIN TEMP:  56; 6HR MAX TEMP:  61;


$$
MOZ072>076-082>087-097>100-106>115-161900-
...SOUTH CENTRAL AND SOUTHEAST MISSOURI...

CITY           SKY/WX    TMP DP  RH WIND       PRES   REMARKS
CAPE GIRARDEAU PTSUNNY   67  54  63 N8        30.17F
6HR MIN TEMP:  61; 6HR MAX TEMP:  68;

FARMINGTON     PTSUNNY   66  55  68 NE9       30.20F
6HR MIN TEMP:  57; 6HR MAX TEMP:  66;

POPLAR BLUFF   CLOUDY    68  54  60 NE7       30.15F
6HR MIN TEMP:  63; 6HR MAX TEMP:  68;

WEST PLAINS    CLOUDY    66  57  72 VRB5      30.19F
6HR MIN TEMP:  62; 6HR MAX TEMP:  66;


$$



USA.gov is the U.S. government's official web portal to all federal, state and local government web resources and services.